Location: Holcomb Observatory
(44.4922°N, 73.1654°W)
Time: 09:51:28
(UTC-04:00)

Cosmos 2360 Rocket - Visible Passes

Search period start: 30 September 2014 00:00
Search period end: 10 October 2014 00:00
Orbit: 833 x 847 km, 71.0° (Epoch: 29 September)

Date Brightness Start Highest point End Pass type
(mag) Time Alt. Az. Time Alt. Az. Time Alt. Az.
01 Oct 4.8 06:09:27 10° N 06:12:12 14° NE 06:14:56 10° ENE visible
02 Oct 4.9 05:54:02 10° NNE 05:56:33 13° NE 05:59:03 10° ENE visible
03 Oct 4.9 05:38:37 10° NNE 05:40:53 12° NE 05:43:09 10° ENE visible
04 Oct 5.0 05:23:15 10° NNE 05:25:14 12° NE 05:27:12 10° ENE visible
05 Oct 5.1 05:07:55 10° NNE 05:09:34 11° NE 05:11:12 10° NE visible
06 Oct 5.1 04:52:41 10° NNE 04:53:54 11° NE 04:55:07 10° NE visible
07 Oct 5.2 04:37:44 10° NNE 04:38:14 10° NE 04:38:44 10° NE visible
07 Oct 3.4 06:18:21 10° NNW 06:23:49 46° ENE 06:29:13 10° SE visible
08 Oct 3.5 06:02:47 10° NNW 06:08:12 43° ENE 06:13:34 10° SE visible
09 Oct 3.5 05:47:14 10° NNW 05:52:36 41° ENE 05:57:54 10° SE visible
09 Oct 4.2 20:39:33 10° S 20:40:22 14° S 20:40:22 14° S visible
